sat.trackr.live / text

‹ back to catalog

STARLINK-34504

NORAD 64600 · 2025-137G

PAYLOAD ACTIVE UNKNOWN

§ Identity

Operator
Country
US
Launch date
2025-06-25
Launch site
AFETR
Launch vehicle
Mass (kg)
RCS (m²)

Purposes: comms

External: N2YO · Heavens-Above · Gunter

§ Orbital elements

Epoch: 2026-09-19T04:36:19.488672Z

Period
93.85 min
Inclination
53.1557°
Eccentricity
0.0001048
Mean motion
15.34405556 rev/d
Perigee alt
462.0 km
Apogee alt
463.4 km
Semi-major
6,840.8 km
B*
5.9468e-4
RAAN
155.5416°
Arg perigee
98.9678°
Mean anomaly
261.1444°
Rev number
7,037

§ Raw data

STARLINK-345041 64600U 25137G   26262.19189223  .00019773  00000+0  59468-3 0  99982 64600  53.1557 155.5416 0001048  98.9678 261.1444 15.34405556 70378

JSON: /api/v1/satellites/64600 · /tle

For live sub-satellite position, see the globe view (requires WebGL).

§ Visibility from observer

Set your observer location to see the next 7 days of passes ≥ 10°. The values pass through the URL so the page stays shareable.

No JS? Fill the form by hand. The geolocation button needs JavaScript.